Location: Rounton
(54.4000°N, 1.3500°W)
Time: 08:40:36
(UTC+00:00)

Altair - Pass Details

Date: 30 November 2021
Orbit: 1501 x 1683 km, 47.2° (Epoch: 24 January)

Event Time Altitude Azimuth Distance (km) Brightness Sun altitude
Rises 23:10:03 0° 283° (WNW) 4,649 10.3 -56.3°
Enters shadow 23:11:56 - 278° (W) 4,132 9.9 -56.4°
Reaches altitude 10° 23:13:49 10° 270° (W) 3,657 - -56.5°
Maximum altitude 23:20:32 24° 223° (SW) 2,741 - -56.8°
Drops below altitude 10° 23:27:17 10° 174° (S) 3,667 - -57.0°
Sets 23:31:05 0° 162° (SSE) 4,664 - -57.1°
